Weather History for EBLG - August, 2013

Change the Weather History Date:

Saturday, August 17, 2013

  Actual Average Record
Temperature  
Mean Temperature 68 °F -  
Max Temperature 77 °F 68 °F 86 °F (2002)
Min Temperature 59 °F 53 °F 35 °F (2002)
Cooling Degree Days 3    
Growing Degree Days 18 (Base 50)    
Moisture  
Dew Point 55 °F    
Average Humidity 63    
Maximum Humidity 88    
Minimum Humidity 36    
Precipitation  
Precipitation 0.00 in - - ()
Sea Level Pressure  
Sea Level Pressure 30.01 in    
Wind  
Wind Speed 7 mph ()    
Max Wind Speed 21 mph    
Max Gust Speed -    
Visibility 7.5 miles    
Events Rain    
Averages and records for this station are not official NWS values.
T = Trace of Precipitation, MM = Missing Value Source: Averaged Metar Reports

Daily Weather History Graph

Daily Weather History Graph

Search for Another Location

Airport or City:

Trip Planner

Search our weather history database for the weather conditions in past years. The results will help you decide how hot, cold, wet, or windy it might be!

Date:

Astronomy

Aug. 17, 2013 Rise Set
Actual Time 6:29 AM CEST 8:54 PM CEST
Civil Twilight 5:52 AM CEST 9:30 PM CEST
Nautical Twilight 5:06 AM CEST 10:15 PM CEST
Astronomical Twilight 4:12 AM CEST 11:09 PM CEST
Moon 6:06 PM CEST (8/17) 2:02 AM CEST (8/17)
Length of Visible Light 15h 37m
Length of Day
14h 24m
Waxing Gibbous, 82% of the Moon is Illuminated
Aug 17
Waxing Gibbous
Aug 21
Full
Aug 28
Last Quarter
Sep 5
New
Sep 12
First Quarter

Hourly Weather History & Observations

Time (CEST) Temp. Dew Point Humidity Pressure Visibility Wind Dir Wind Speed Gust Speed Precip Events Conditions
12:20 AM 64.4 °F 55.4 °F 73% 30.04 in - Variable 2.3 mph - N/A   Clear
12:50 AM 64.4 °F 53.6 °F 68% 30.04 in - Variable 2.3 mph - N/A   Clear
1:20 AM 64.4 °F 53.6 °F 68% 30.04 in - Variable 2.3 mph - N/A   Clear
1:50 AM 64.4 °F 53.6 °F 68% 30.04 in - SW 2.3 mph - N/A   Clear
2:00 AM 64 °F 54 °F 62% 30.04 in 19 mi SW 2.2 mph - -   Scattered Clouds
2:20 AM 64.4 °F 53.6 °F 68% 30.04 in - Variable 2.3 mph - N/A   Clear
2:50 AM 64.4 °F 53.6 °F 68% 30.04 in 6.2 mi Variable 2.3 mph - N/A Rain Light Rain Showers
3:20 AM 62.6 °F 55.4 °F 77% 30.04 in - West 5.8 mph - N/A   Clear
3:50 AM 62.6 °F 55.4 °F 77% 30.04 in - West 4.6 mph - N/A   Clear
4:20 AM 62.6 °F 55.4 °F 77% 30.04 in 6.2 mi SW 2.3 mph - N/A Rain Light Rain Showers
4:50 AM 62.6 °F 55.4 °F 77% 30.04 in 6.2 mi South 3.5 mph - N/A Rain Light Rain Showers
5:00 AM 62 °F 55 °F 71% 30.03 in 19 mi South 2.2 mph - - Rain Heavy Rain Showers
5:20 AM 60.8 °F 55.4 °F 82% 30.04 in - WSW 3.5 mph - N/A   Clear
5:50 AM 60.8 °F 55.4 °F 82% 30.04 in - WSW 5.8 mph - N/A   Clear
6:20 AM 59.0 °F 55.4 °F 88% 30.04 in - SW 6.9 mph - N/A   Clear
6:50 AM 59.0 °F 55.4 °F 88% 30.04 in - SW 6.9 mph - N/A   Clear
7:20 AM 60.8 °F 55.4 °F 82% 30.04 in 6.2 mi SSW 6.9 mph - N/A   Mostly Cloudy
7:50 AM 62.6 °F 57.2 °F 82% 30.04 in 6.2 mi SSW 6.9 mph - N/A   Mostly Cloudy
8:00 AM 63 °F 57 °F 74% 30.04 in 9 mi SSW 6.7 mph - -   Partly Cloudy
8:20 AM 62.6 °F 57.2 °F 82% 30.04 in 6.2 mi SW 9.2 mph - N/A   Mostly Cloudy
8:50 AM 64.4 °F 57.2 °F 77% 30.04 in 6.2 mi SSW 8.1 mph - N/A   Mostly Cloudy
9:20 AM 64.4 °F 59.0 °F 83% 30.04 in 6.2 mi SSW 8.1 mph - N/A   Mostly Cloudy
9:50 AM 66.2 °F 57.2 °F 73% 30.04 in 6.2 mi SSW 9.2 mph - N/A   Mostly Cloudy
10:20 AM 66.2 °F 59.0 °F 78% 30.04 in 6.2 mi SSW 11.5 mph - N/A   Mostly Cloudy
10:50 AM 66.2 °F 57.2 °F 73% 30.04 in 6.2 mi SW 13.8 mph - N/A   Mostly Cloudy
11:00 AM 67 °F 57 °F 62% 30.03 in 12 mi SW 13.4 mph - -   Mostly Cloudy
11:20 AM 69.8 °F 55.4 °F 60% 30.04 in 6.2 mi SSW 16.1 mph - N/A   Mostly Cloudy
11:50 AM 69.8 °F 53.6 °F 56% 30.04 in 6.2 mi SW 12.7 mph - N/A   Mostly Cloudy
12:20 PM 69.8 °F 53.6 °F 56% 30.04 in 6.2 mi SW 11.5 mph - N/A   Mostly Cloudy
12:50 PM 69.8 °F 53.6 °F 56% 30.04 in 6.2 mi SW 15.0 mph - N/A   Mostly Cloudy
1:20 PM 71.6 °F 55.4 °F 57% 30.04 in 6.2 mi WSW 17.3 mph - N/A   Mostly Cloudy
1:50 PM 71.6 °F 53.6 °F 53% 30.04 in 6.2 mi SW 18.4 mph - N/A   Mostly Cloudy
2:00 PM 72 °F 54 °F 42% 30.01 in 12 mi SW 17.9 mph - -   Mostly Cloudy
2:20 PM 71.6 °F 51.8 °F 50% 30.01 in 6.2 mi SW 20.7 mph - N/A   Mostly Cloudy
2:50 PM 73.4 °F 53.6 °F 50% 30.01 in 6.2 mi SW 16.1 mph - N/A   Scattered Clouds
3:20 PM 75.2 °F 53.6 °F 47% 30.01 in 6.2 mi WSW 16.1 mph - N/A   Scattered Clouds
3:50 PM 75.2 °F 53.6 °F 47% 30.01 in 6.2 mi WSW 16.1 mph - N/A   Scattered Clouds
4:20 PM 75.2 °F 53.6 °F 47% 29.98 in 6.2 mi WSW 15.0 mph - N/A   Scattered Clouds
4:50 PM 75.2 °F 53.6 °F 47% 29.98 in 6.2 mi SW 15.0 mph - N/A   Partly Cloudy
5:00 PM 76 °F 54 °F 36% 29.96 in 12 mi SW 13.4 mph - -   Scattered Clouds
5:20 PM 73.4 °F 53.6 °F 50% 29.98 in 6.2 mi SSW 12.7 mph - N/A   Partly Cloudy
5:50 PM 73.4 °F 55.4 °F 53% 29.95 in 6.2 mi SW 15.0 mph - N/A   Partly Cloudy
6:20 PM 75.2 °F 53.6 °F 47% 29.95 in 6.2 mi SW 15.0 mph - N/A   Partly Cloudy
6:50 PM 75.2 °F 55.4 °F 50% 29.95 in 6.2 mi SSW 15.0 mph - N/A   Partly Cloudy
7:20 PM 73.4 °F 55.4 °F 53% 29.95 in 6.2 mi SW 12.7 mph - N/A   Scattered Clouds
7:50 PM 73.4 °F 55.4 °F 53% 29.95 in 6.2 mi SSW 15.0 mph - N/A   Partly Cloudy
8:00 PM 73 °F 55 °F 43% 29.93 in 25 mi SSW 13.4 mph - -   Scattered Clouds
8:20 PM 71.6 °F 55.4 °F 57% 29.95 in 6.2 mi SSW 12.7 mph - N/A   Partly Cloudy
8:50 PM 71.6 °F 55.4 °F 57% 29.95 in - SSW 10.4 mph - N/A   Clear
9:20 PM 71.6 °F 57.2 °F 60% 29.95 in - South 9.2 mph - N/A   Clear
9:50 PM 71.6 °F 57.2 °F 60% 29.95 in - South 10.4 mph - N/A   Clear
10:20 PM 71.6 °F 57.2 °F 60% 29.95 in - SSW 10.4 mph - N/A   Clear
10:50 PM 69.8 °F 57.2 °F 64% 29.95 in - SSW 10.4 mph - N/A   Clear
11:00 PM 70 °F 57 °F 55% 29.93 in 25 mi SSW 8.9 mph - -   Mostly Cloudy
11:20 PM 69.8 °F 57.2 °F 64% 29.92 in - South 9.2 mph - N/A   Clear
11:50 PM 69.8 °F 57.2 °F 64% 29.92 in - SSW 10.4 mph - N/A   Clear